FW9909 Weather Reports


Display with metric or nautical units.
time (UTC)temp
F
wind
direction
speed
MPH
gust
MPH
rain 1hr
in
rain 24hr
in
rain mn
in
humidity
%
barometer
mb
20260904052017 81 158 1.0 3.0 0.00 0.00 0.00 65 1014.9
20260904051015 81 314 0.0 2.0 0.00 0.00 0.00 64 1014.8
20260904050033 82 185 1.0 2.0 0.00 0.00 0.00 64 1014.7
20260904045031 82 283 1.0 4.0 0.00 0.00 0.00 64 1014.7
20260904044029 82 309 0.0 2.0 0.00 0.00 0.00 63 1014.7
20260904043028 82 210 1.0 4.0 0.00 0.00 0.00 62 1014.8
20260904042025 82 232 1.0 4.0 0.00 0.00 0.00 62 1014.8
20260904041024 82 246 1.0 3.0 0.00 0.00 0.00 62 1014.7
20260904040022 83 240 0.0 2.0 0.00 0.00 0.00 61 1014.7
20260904035020 84 297 1.0 3.0 0.00 0.00 0.00 60 1014.6
20260904034038 84 184 1.0 4.0 0.00 0.00 0.00 58 1014.7
20260904033016 85 259 1.0 4.0 0.00 0.00 0.00 57 1014.6
20260904032035 85 252 2.0 4.0 0.00 0.00 0.00 57 1014.7
20260904031032 85 289 1.0 4.0 0.00 0.00 0.00 56 1014.7
20260904030031 85 339 1.0 4.0 0.00 0.00 0.00 56 1014.6
20260904025029 86 235 2.0 4.0 0.00 0.00 0.00 55 1014.6
20260904024027 86 273 2.0 4.0 0.00 0.00 0.00 54 1014.5
20260904023025 86 183 2.0 5.0 0.00 0.00 0.00 54 1014.4
20260904022023 86 256 1.0 6.0 0.00 0.00 0.00 54 1014.2
20260904021021 87 196 1.0 3.0 0.00 0.00 0.00 53 1014.2
20260904020019 87 281 1.0 2.0 0.00 0.00 0.00 53 1014.0
20260904015017 88 297 1.0 2.0 0.00 0.00 0.00 52 1013.8
20260904014016 88 315 1.0 3.0 0.00 0.00 0.00 51 1013.6
20260904013054 88 249 2.0 7.0 0.00 0.00 0.00 50 1013.5
20260904012032 89 138 1.0 3.0 0.00 0.00 0.00 49 1013.4
20260904011030 89 297 1.0 3.0 0.00 0.00 0.00 49 1013.3
20260904010028 90 306 2.0 4.0 0.00 0.00 0.00 48 1013.2
20260904005026 90 271 2.0 4.0 0.00 0.00 0.00 46 1013.1
20260904004024 91 249 3.0 6.0 0.00 0.00 0.00 45 1013.2
20260904003022 92 224 3.0 6.0 0.00 0.00 0.00 44 1013.2
20260904002021 92 256 3.0 5.0 0.00 0.00 0.00 44 1013.1
20260904001019 93 267 2.0 5.0 0.00 0.00 0.00 43 1013.0
20260904000017 94 255 2.0 9.0 0.00 0.00 0.00 42 1013.0
20260903235015 95 267 3.0 6.0 0.00 0.00 0.00 40 1012.9
20260903234033 95 245 3.0 7.0 0.00 0.00 0.00 39 1012.8
20260903233032 96 243 3.0 6.0 0.00 0.00 0.00 38 1012.8
20260903232030 97 257 4.0 9.0 0.00 0.00 0.00 38 1012.8
20260903231027 98 243 2.0 6.0 0.00 0.00 0.00 37 1012.8
20260903230046 99 229 2.0 9.0 0.00 0.00 0.00 36 1012.7
20260903225024 99 273 2.0 6.0 0.00 0.00 0.00 36 1012.9
20260903224022 99 253 4.0 8.0 0.00 0.00 0.00 36 1012.8
20260903223100 100 260 4.0 8.0 0.00 0.00 0.00 35 1012.8
20260903222018 100 238 4.0 8.0 0.00 0.00 0.00 35 1012.7
20260903221016 101 247 5.0 10.0 0.00 0.00 0.00 35 1012.7
20260903220034 101 242 4.0 7.0 0.00 0.00 0.00 35 1012.9
20260903215033 100 242 5.0 10.0 0.00 0.00 0.00 35 1012.8
20260903214031 101 233 4.0 8.0 0.00 0.00 0.00 35 1012.9
20260903213029 101 270 4.0 6.0 0.00 0.00 0.00 36 1012.9
20260903212027 100 310 2.0 5.0 0.00 0.00 0.00 36 1013.1
20260903211025 101 255 4.0 7.0 0.00 0.00 0.00 35 1013.1
20260903210023 102 42 2.0 5.0 0.00 0.00 0.00 35 1013.1
20260903205022 102 256 3.0 7.0 0.00 0.00 0.00 34 1013.1
20260903204020 102 259 5.0 9.0 0.00 0.00 0.00 35 1013.2
20260903203018 101 254 5.0 9.0 0.00 0.00 0.00 35 1013.4
20260903202016 101 242 4.0 14.0 0.00 0.00 0.00 35 1013.3
20260903201034 100 245 6.0 10.0 0.00 0.00 0.00 36 1013.5
20260903200032 100 257 3.0 9.0 0.00 0.00 0.00 37 1013.7
20260903195030 100 240 4.0 9.0 0.00 0.00 0.00 37 1013.8
20260903194048 100 258 5.0 13.0 0.00 0.00 0.00 36 1013.9
20260903193026 100 240 5.0 11.0 0.00 0.00 0.00 36 1013.9
20260903192024 99 217 3.0 9.0 0.00 0.00 0.00 38 1014.2
20260903191023 99 245 3.0 7.0 0.00 0.00 0.00 39 1014.4
20260903190021 99 261 5.0 9.0 0.00 0.00 0.00 37 1014.4
20260903185019 98 251 5.0 11.0 0.00 0.00 0.00 38 1014.8
20260903184017 99 248 4.0 12.0 0.00 0.00 0.00 38 1014.7
20260903183035 98 270 3.0 7.0 0.00 0.00 0.00 40 1014.9
20260903182033 97 238 5.0 11.0 0.00 0.00 0.00 40 1014.9
20260903181031 98 241 4.0 8.0 0.00 0.00 0.00 40 1015.0
20260903180029 97 256 4.0 9.0 0.00 0.00 0.00 42 1015.2
20260903175028 96 236 5.0 9.0 0.00 0.00 0.00 41 1015.4
20260903174026 95 241 4.0 8.0 0.00 0.00 0.00 42 1015.5
20260903173104 95 258 5.0 9.0 0.00 0.00 0.00 44 1015.7
20260903172022 94 254 5.0 10.0 0.00 0.00 0.00 44 1015.8
20260903171040 95 248 5.0 8.0 0.00 0.00 0.00 44 1015.8
20260903170018 94 270 6.0 10.0 0.00 0.00 0.00 44 1016.0
20260903165016 92 237 4.0 10.0 0.00 0.00 0.00 46 1016.0
20260903164035 92 258 6.0 10.0 0.00 0.00 0.00 46 1016.2
20260903163033 92 246 5.0 10.0 0.00 0.00 0.00 46 1016.3
20260903162031 92 236 5.0 9.0 0.00 0.00 0.00 47 1016.3
20260903161029 91 256 5.0 10.0 0.00 0.00 0.00 49 1016.3
20260903160027 91 236 4.0 9.0 0.00 0.00 0.00 51 1016.5
20260903155025 91 238 4.0 8.0 0.00 0.00 0.00 51 1016.4
20260903154043 91 260 4.0 7.0 0.00 0.00 0.00 51 1016.6
20260903153022 90 259 5.0 12.0 0.00 0.00 0.00 53 1016.5
20260903152019 89 257 6.0 11.0 0.00 0.00 0.00 55 1016.6
20260903151018 88 257 5.0 12.0 0.00 0.00 0.00 56 1016.6
20260903150016 87 259 5.0 12.0 0.00 0.00 0.00 57 1016.5
20260903145034 88 265 5.0 10.0 0.00 0.00 0.00 58 1016.6
20260903144032 87 240 4.0 11.0 0.00 0.00 0.00 60 1016.7
20260903143030 86 261 3.0 6.0 0.00 0.00 0.00 61 1016.7
20260903142049 86 270 4.0 8.0 0.00 0.00 0.00 63 1016.8
20260903141046 85 253 3.0 6.0 0.00 0.00 0.00 64 1016.8
20260903140025 84 236 4.0 7.0 0.00 0.00 0.00 66 1017.0
20260903135023 83 246 3.0 6.0 0.00 0.00 0.00 68 1017.0
20260903134021 82 247 3.0 7.0 0.00 0.00 0.00 70 1017.1
20260903133019 81 238 3.0 8.0 0.00 0.00 0.00 72 1017.1
20260903132017 79 229 3.0 5.0 0.00 0.00 0.00 75 1017.1
20260903131015 79 308 3.0 6.0 0.00 0.00 0.00 76 1017.0
20260903130034 78 243 2.0 5.0 0.00 0.00 0.00 78 1016.9
20260903125032 77 205 3.0 6.0 0.00 0.00 0.00 80 1016.8
20260903124050 75 167 2.0 4.0 0.00 0.00 0.00 82 1016.7
20260903123028 74 138 2.0 4.0 0.00 0.00 0.00 84 1016.7
20260903122046 74 101 2.0 3.0 0.00 0.00 0.00 85 1016.8
20260903121024 74 37 1.0 2.0 0.00 0.00 0.00 85 1016.6
20260903120022 74 93 2.0 4.0 0.00 0.00 0.00 84 1016.7
20260903115022 74 119 1.0 3.0 0.00 0.00 0.00 84 1016.6
20260903114018 74 122 2.0 3.0 0.00 0.00 0.00 83 1016.6
20260903113017 74 93 1.0 3.0 0.00 0.00 0.00 82 1016.6
20260903112035 74 21 2.0 6.0 0.00 0.00 0.00 82 1016.5
20260903111033 74 173 2.0 3.0 0.00 0.00 0.00 83 1016.5
20260903110031 74 77 2.0 4.0 0.00 0.00 0.00 82 1016.4
20260903105029 75 32 1.0 3.0 0.00 0.00 0.00 82 1016.3
20260903104027 75 15 3.0 6.0 0.00 0.00 0.00 81 1016.1
20260903103025 75 102 2.0 4.0 0.00 0.00 0.00 81 1016.1
20260903102023 75 10 1.0 4.0 0.00 0.00 0.00 81 1016.3
20260903101022 75 58 1.0 3.0 0.00 0.00 0.00 80 1016.1
20260903100020 75 137 2.0 4.0 0.00 0.00 0.00 80 1016.1
20260903095018 75 81 2.0 4.0 0.00 0.00 0.00 80 1016.0
20260903094016 76 26 2.0 3.0 0.00 0.00 0.00 79 1016.0
20260903093034 76 14 3.0 5.0 0.00 0.00 0.00 79 1015.9
20260903092032 76 46 1.0 3.0 0.00 0.00 0.00 79 1015.9
20260903091030 76 44 1.0 2.0 0.00 0.00 0.00 78 1015.9
20260903090048 76 337 0.0 2.0 0.00 0.00 0.00 78 1015.8
20260903085026 76 92 0.0 2.0 0.00 0.00 0.00 77 1016.0
20260903083023 76 22 0.0 2.0 0.00 0.00 0.00 77 1015.8
20260903082021 77 20 1.0 2.0 0.00 0.00 0.00 76 1015.8
20260903081019 77 66 0.0 2.0 0.00 0.00 0.00 75 1015.8
20260903080037 77 86 1.0 3.0 0.00 0.00 0.00 75 1015.8
20260903075016 77 89 1.0 2.0 0.00 0.00 0.00 74 1015.8
20260903074034 78 32 0.0 2.0 0.00 0.00 0.00 74 1015.8
20260903073032 78 85 1.0 3.0 0.00 0.00 0.00 73 1015.7
20260903072030 78 358 1.0 2.0 0.00 0.00 0.00 73 1015.8
20260903071028 78 42 1.0 3.0 0.00 0.00 0.00 72 1015.8
20260903070026 78 359 1.0 2.0 0.00 0.00 0.00 71 1015.8
20260903065024 79 28 1.0 2.0 0.00 0.00 0.00 71 1015.7
20260903064022 79 97 0.0 2.0 0.00 0.00 0.00 71 1015.7
20260903063020 79 56 0.0 2.0 0.00 0.00 0.00 70 1015.7
20260903062019 79 66 1.0 2.0 0.00 0.00 0.00 70 1015.7
20260903061157 79 7 0.0 2.0 0.00 0.00 0.00 69 1015.8
20260903060035 79 41 1.0 2.0 0.00 0.00 0.00 69 1015.8
20260903055033 80 53 0.0 3.0 0.00 0.00 0.00 68 1015.7
20260903054031 80 47 0.0 2.0 0.00 0.00 0.00 68 1015.8
20260903053029 80 21 0.0 2.0 0.00 0.00 0.00 67 1015.8